Weather History for KHKS - March, 2013

Change the Weather History Date:

Saturday, March 2, 2013

  Actual Average (KJAN) Record (KJAN)
Temperature  
Mean Temperature 34 °F 53 °F  
Max Temperature 37 °F 65 °F 86 °F (1918)
Min Temperature 30 °F 42 °F 19 °F (1980)
Degree Days  
Heating Degree Days 32 12  
Month to date heating degree days 24  
Since 1 July heating degree days 2016  
Cooling Degree Days 0 0  
Month to date cooling degree days 0  
Year to date cooling degree days 10  
Moisture  
Dew Point 25 °F    
Average Humidity 68    
Maximum Humidity 88    
Minimum Humidity 55    
Precipitation  
Precipitation 0.00 in 0.16 in 2.63 in (2001)
Month to date precipitation 0.33  
Year to date precipitation 10.06  
Sea Level Pressure  
Sea Level Pressure 30.21 in    
Wind  
Wind Speed 5 mph (NW)    
Max Wind Speed 14 mph    
Max Gust Speed 20 mph    
Visibility 9 miles    
Events      
T = Trace of Precipitation, MM = Missing Value Source: NWS Daily Summary

Daily Weather History Graph

Daily Weather History Graph

Search for Another Location

Airport or City:

Trip Planner

Search our weather history database for the weather conditions in past years. The results will help you decide how hot, cold, wet, or windy it might be!

Date:

Astronomy

Mar. 02, 2013 Rise Set
Actual Time 6:26 AM CST 5:59 PM CST
Civil Twilight 6:02 AM CST 6:24 PM CST
Nautical Twilight 5:33 AM CST 6:52 PM CST
Astronomical Twilight 5:05 AM CST 7:20 PM CST
Moon 11:17 PM CST (3/2) 9:15 AM CST (3/2)
Length of Visible Light 12h 21m
Length of Day
11h 32m
Waning Gibbous, 74% of the Moon is Illuminated
Mar 2
Waning Gibbous
Mar 4
Last Quarter
Mar 11
New
Mar 19
First Quarter
Mar 27
Full

Hourly Weather History & Observations

Time (CST) Temp. Windchill Dew Point Humidity Pressure Visibility Wind Dir Wind Speed Gust Speed Precip Events Conditions
12:53 AM 32.0 °F - 26.1 °F 79% 30.16 in 8.0 mi Calm Calm - N/A   Scattered Clouds
1:53 AM 32.0 °F 28.7 °F 27.0 °F 82% 30.15 in 9.0 mi NW 3.5 mph - N/A   Partly Cloudy
3:53 AM 30.0 °F 26.5 °F 26.1 °F 85% 30.16 in 8.0 mi NNW 3.5 mph - N/A   Clear
5:53 AM 30.0 °F 26.5 °F 27.0 °F 88% 30.18 in 6.0 mi NW 3.5 mph - N/A   Mostly Cloudy
6:53 AM 32.0 °F 28.7 °F 28.0 °F 85% 30.20 in 6.0 mi NW 3.5 mph - N/A   Overcast
7:53 AM 33.1 °F 27.7 °F 28.9 °F 85% 30.21 in 7.0 mi NW 5.8 mph - N/A   Overcast
8:53 AM 36.0 °F 30.3 °F 27.0 °F 70% 30.22 in 10.0 mi NW 6.9 mph - N/A   Overcast
9:53 AM 37.9 °F 29.6 °F 25.0 °F 60% 30.23 in 10.0 mi NW 13.8 mph 17.3 mph N/A   Overcast
10:53 AM 37.9 °F 31.5 °F 25.0 °F 60% 30.24 in 10.0 mi NW 9.2 mph 16.1 mph N/A   Overcast
11:53 AM 37.0 °F 31.0 °F 26.1 °F 65% 30.23 in 10.0 mi NNW 8.1 mph - 0.00 in   Overcast
12:53 PM 37.9 °F 32.1 °F 25.0 °F 60% 30.20 in 10.0 mi NW 8.1 mph 18.4 mph 0.00 in   Overcast
1:53 PM 37.9 °F 30.0 °F 24.1 °F 57% 30.20 in 10.0 mi NW 12.7 mph 19.6 mph N/A   Overcast
2:53 PM 37.0 °F 31.0 °F 25.0 °F 62% 30.20 in 10.0 mi NNW 8.1 mph - N/A   Overcast
3:53 PM 37.0 °F 30.4 °F 25.0 °F 62% 30.20 in 10.0 mi NNW 9.2 mph 16.1 mph N/A   Overcast
4:53 PM 36.0 °F 28.5 °F 25.0 °F 64% 30.22 in 10.0 mi NNW 10.4 mph 18.4 mph N/A   Overcast
5:53 PM 36.0 °F 28.5 °F 24.1 °F 62% 30.23 in 10.0 mi NNW 10.4 mph - N/A   Overcast
7:53 PM 36.0 °F 29.6 °F 21.0 °F 55% 30.25 in 10.0 mi North 8.1 mph 16.1 mph N/A   Mostly Cloudy
8:53 PM 34.0 °F 31.0 °F 21.0 °F 59% 30.26 in 10.0 mi NNW 3.5 mph - N/A   Mostly Cloudy
9:53 PM 33.1 °F 30.0 °F 21.0 °F 61% 30.26 in 10.0 mi North 3.5 mph - N/A   Clear
10:53 PM 32.0 °F - 21.0 °F 64% 30.25 in 10.0 mi Calm Calm - N/A   Clear
11:53 PM 30.0 °F 26.5 °F 21.0 °F 69% 30.25 in 10.0 mi NW 3.5 mph - N/A   Clear